GFSWCAN_500_rhum_159.txt.gz
RH
65 67 85 93 89 86 69 100 100 100 100 100 100 100 100 100 100 76 100 94 87 85 91 97 91 85 90 82 56 38 32 57 69 99 100 98 97 100 76 70 80 78 88 100 100 100 80 60 72 66 74 79 60 55
99 74 51 62 84 81 70 91 100 100 100 100 100 100 100 100 100 90 83 100 96 77 70 76 67 82 86 74 59 32 28 39 67 85 100 100 92 94 88 80 99 80 76 80 90 88 82 78 81 84 71 56 64 88
76 71 100 37 50 59 67 86 100 100 100 100 100 100 100 100 100 94 95 97 96 75 62 45 80 99 68 100 67 31 23 33 68 100 100 100 99 88 82 60 71 75 100 100 100 78 85 81 77 76 76 74 78 99
100 99 100 100 83 69 63 99 100 100 100 100 100 100 100 100 100 100 90 82 87 100 80 44 100 94 98 85 67 34 27 41 67 100 100 100 100 99 88 82 85 89 83 97 98 93 94 78 63 79 100 100 91 96
100 96 98 94 96 100 100 100 100 100 100 100 100 100 100 100 100 100 99 96 100 97 68 97 100 100 100 90 51 30 26 38 84 98 100 100 100 69 86 100 76 95 88 87 84 89 90 81 90 86 97 99 100 100
83 93 96 95 93 96 88 91 100 100 96 100 100 100 100 100 100 98 100 100 73 97 100 100 70 92 100 75 37 31 37 59 100 100 100 100 97 92 63 80 100 58 46 45 50 59 73 99 89 100 100 99 100 100
95 97 99 100 100 100 100 100 100 100 98 99 98 100 100 100 98 99 80 100 93 94 92 53 60 100 100 31 35 52 75 98 100 95 77 85 100 100 92 97 81 79 90 92 85 99 100 100 98 98 100 100 99 99
50 59 67 67 71 78 75 89 93 91 79 100 99 88 96 94 100 100 100 96 87 64 44 48 100 100 91 92 100 100 100 100 93 87 85 94 91 86 95 96 70 88 45 22 20 18 16 22 28 19 14 18 28 58
100 88 69 77 99 100 100 100 99 100 100 100 82 98 100 98 100 100 97 78 50 41 47 98 100 100 99 100 100 100 100 100 92 66 85 99 99 99 100 79 65 41 32 23 18 13 10 9 9 9 10 9 9 9
32 37 49 97 100 98 93 94 100 100 100 100 100 93 78 83 88 86 75 62 41 38 85 100 100 97 100 100 100 100 100 100 100 86 98 94 78 100 95 96 64 31 23 21 12 10 9 8 11 20 31 25 14 14
41 46 40 41 43 66 67 57 52 56 69 51 43 37 53 74 89 88 79 58 33 81 100 100 100 100 100 99 100 100 100 99 100 100 100 100 97 95 77 36 21 15 11 10 9 9 8 9 17 40 42 28 32 34
31 32 65 62 58 68 85 83 95 90 87 83 82 74 56 55 51 50 43 49 85 98 100 100 100 96 94 97 93 100 100 93 93 83 56 69 47 29 22 15 13 12 9 7 8 10 18 37 44 44 44 52 58 62
63 37 42 52 64 63 53 64 93 84 61 82 86 90 100 99 96 84 92 99 99 100 100 100 100 98 99 98 100 94 90 58 48 27 23 20 18 16 16 16 12 10 8 10 39 48 68 63 67 63 71 55 43 91
52 69 58 53 66 81 96 93 100 95 95 100 100 100 100 100 100 95 94 98 100 100 99 82 100 96 84 81 80 72 49 35 24 28 41 30 27 24 20 16 12 12 14 63 82 77 70 73 83 78 87 71 76 94
39 37 36 37 42 51 86 94 99 100 100 84 85 95 100 100 79 90 95 92 94 100 100 100 80 75 71 61 52 43 42 29 31 30 29 32 29 23 16 13 12 12 33 98 99 72 66 60 60 80 90 91 100 99
39 35 32 32 34 39 58 68 55 47 42 41 39 38 37 38 59 82 74 62 65 88 81 77 67 47 31 28 25 24 23 22 21 20 18 17 16 15 14 12 11 28 74 95 92 66 68 88 97 92 66 72 91 93
52 46 44 32 27 29 30 62 84 84 51 32 26 26 27 26 25 23 24 51 42 65 57 39 30 23 28 30 29 27 22 21 19 17 16 15 15 15 14 12 25 99 100 98 92 95 91 74 70 100 100 90 77 64
55 55 62 62 63 57 63 66 92 100 100 90 69 46 37 25 25 24 20 19 20 22 24 26 27 28 28 29 25 26 25 22 21 24 25 43 58 34 19 16 98 100 99 96 83 74 75 69 54 76 100 94 84 90
80 85 86 72 72 69 70 83 99 97 99 100 100 95 90 85 82 78 70 60 52 40 30 28 22 19 23 33 61 66 44 52 60 64 78 82 75 65 58 80 100 100 89 61 50 46 51 48 49 59 90 96 50 26
84 70 87 100 100 100 87 89 99 100 100 98 100 100 100 100 100 99 98 97 97 99 88 69 54 45 62 85 72 56 57 45 37 44 49 67 57 57 82 99 100 86 62 44 40 43 59 58 55 66 90 76 44 31
83 98 100 100 100 100 100 100 100 100 100 100 100 100 100 100 100 100 100 100 100 100 100 100 88 60 36 41 52 61 47 55 53 87 100 100 91 73 93 96 69 52 42 37 46 53 54 58 69 83 91 62 75 97
18 29 66 94 98 100 100 100 100 100 100 100 100 100 100 100 100 100 100 100 100 77 72 97 74 59 57 50 56 75 80 62 63 92 98 100 100 85 68 59 48 44 48 57 54 51 54 69 92 100 96 84 94 100
21 17 21 27 27 27 29 30 30 30 32 39 60 80 97 100 100 100 100 100 100 95 60 57 63 56 58 70 79 95 98 100 100 100 100 100 100 100 97 91 84 68 56 61 68 71 80 97 100 100 92 94 98 96
28 23 22 22 22 25 24 25 24 23 22 22 23 24 27 29 39 66 100 100 100 100 100 91 66 62 68 78 88 90 89 90 91 93 95 95 89 82 74 65 67 82 91 95 96 99 100 100 100 100 99 100 100 100
78 54 37 28 28 24 22 22 22 24 24 24 24 24 24 22 23 22 24 58 99 100 100 100 100 100 87 81 86 81 73 74 78 85 93 94 94 96 96 96 99 100 98 100 100 100 100 100 100 100 100 100 100 100
100 94 88 56 37 36 33 29 27 26 27 29 31 31 29 28 27 24 22 21 23 50 93 100 100 100 100 100 100 100 100 100 100 100 100 100 100 100 100 100 99 98 100 100 100 100 100 100 100 100 100 100 100 100
100 100 100 100 92 74 56 67 53 45 39 36 33 30 29 28 26 26 25 24 23 22 23 31 66 96 100 100 100 100 100 100 100 100 100 100 100 100 100 100 100 100 100 100 100 100 100 100 100 100 100 100 100 100
100 100 100 100 100 100 100 100 100 97 90 81 75 73 68 55 49 41 30 26 25 26 24 21 21 24 30 51 87 100 100 100 100 100 100 100 100 100 100 100 100 100 100 100 100 100 100 100 100 100 100 100 100 99
96 100 100 100 100 100 100 100 100 100 100 100 100 100 100 94 90 77 55 40 36 31 28 26 26 26 23 22 24 26 34 87 100 100 100 100 100 100 100 100 100 100 100 100 100 100 100 100 100 100 100 100 98 57
100 100 100 100 100 100 100 100 100 100 99 100 100 100 100 93 91 97 100 96 70 48 33 32 34 31 28 28 28 26 25 26 31 72 100 100 100 100 100 100 100 100 100 100 100 100 100 100 100 100 100 89 43 35
100 100 100 100 100 100 100 100 100 100 100 100 100 100 100 97 93 91 90 98 100 99 85 55 28 30 36 34 30 30 31 29 28 35 55 77 96 100 100 100 100 100 100 100 100 100 100 100 100 100 71 36 39 47
100 98 100 100 100 100 100 100 100 100 100 100 100 100 100 91 72 69 67 67 82 100 100 98 59 33 29 36 46 44 33 32 34 33 30 31 38 59 97 100 100 100 100 100 100 100 100 100 92 44 35 43 42 35
77 96 92 88 81 82 98 99 97 100 98 100 100 100 100 100 99 95 87 73 60 60 97 100 97 68 42 31 38 54 57 44 33 33 35 34 31 31 39 81 99 100 98 98 97 94 71 39 35 41 43 35 31 33

GFSWCAN_500_rhum_162.txt.gz
RH
71 85 79 90 96 100 100 100 100 100 100 100 100 100 100 100 99 99 94 86 81 91 98 100 97 100 100 100 87 61 42 34 47 92 99 92 91 83 84 92 100 94 100 94 98 100 76 71 100 81 81 83 69 81
85 92 98 67 91 92 97 100 100 100 100 100 100 100 100 100 98 100 96 97 96 81 97 93 92 92 100 82 78 68 69 58 38 42 100 95 85 98 91 80 100 86 91 100 93 82 74 73 82 86 95 89 70 66
75 80 94 67 76 87 92 83 76 100 100 100 100 100 100 100 100 100 99 90 78 91 90 82 93 84 65 90 60 58 72 64 41 36 38 74 90 92 88 89 91 94 86 100 90 89 70 69 68 64 70 89 82 75
100 90 99 99 62 100 99 89 71 100 100 100 100 100 100 100 100 99 83 87 85 84 65 73 85 62 73 76 83 80 80 56 51 57 37 53 99 82 100 80 93 79 92 84 58 64 98 78 73 83 95 97 87 91
75 80 100 100 83 85 89 79 80 98 100 100 100 100 100 100 100 99 89 76 87 88 58 61 56 67 100 94 95 93 96 68 48 37 29 48 97 100 100 83 29 40 80 76 59 57 64 66 79 84 75 70 57 64
94 76 74 100 100 100 74 74 100 99 97 100 100 100 100 100 100 100 94 64 67 75 69 61 48 95 100 100 99 100 100 83 53 36 26 61 100 100 100 100 100 100 77 57 44 42 38 39 38 54 75 100 100 97
100 100 100 85 94 98 92 85 83 88 94 100 100 94 99 100 100 100 83 71 78 99 100 78 45 46 66 98 100 98 95 64 62 31 43 71 100 99 96 77 86 64 48 56 59 65 46 65 77 65 71 100 100 100
68 73 97 100 97 100 100 100 100 100 100 95 100 100 100 98 100 96 82 65 89 100 100 94 65 44 96 100 100 57 44 43 35 58 92 100 100 98 76 100 81 69 82 72 28 24 24 29 67 75 51 35 42 58
88 93 84 74 83 90 100 100 100 100 100 98 84 85 100 100 93 95 98 93 79 85 87 41 40 72 98 100 100 88 100 100 100 90 86 93 100 60 92 100 91 91 88 50 43 20 15 11 9 8 9 9 10 11
95 100 89 75 91 96 82 96 100 100 100 97 100 100 100 100 100 100 99 99 92 96 54 38 73 100 100 99 100 100 100 100 76 60 62 77 71 95 100 92 100 64 43 34 22 16 11 9 10 10 10 13 19 19
49 46 49 36 38 40 57 84 88 90 100 98 95 94 100 100 100 100 96 84 74 58 31 78 98 100 100 100 97 100 100 100 96 100 100 100 100 95 100 100 89 69 53 25 18 12 9 12 13 12 13 40 41 46
52 45 47 48 40 45 55 38 38 40 43 44 48 60 84 87 99 100 74 34 28 27 82 100 100 100 100 97 92 97 100 100 100 100 100 100 99 100 100 91 53 46 32 14 8 8 12 12 22 50 42 40 40 35
45 44 44 41 44 53 60 50 46 53 67 81 77 72 89 74 53 49 47 49 40 88 100 100 100 100 82 70 71 92 100 100 100 100 100 100 70 70 65 51 51 17 10 9 7 8 14 47 64 71 60 59 63 57
51 53 72 68 69 59 57 79 94 96 93 100 100 100 100 100 100 60 92 99 91 100 100 100 100 100 100 100 98 99 99 100 98 80 66 54 40 37 28 21 17 12 12 9 11 31 77 72 71 69 85 80 77 65
38 31 30 50 82 72 85 99 100 100 94 98 100 100 100 99 100 100 97 100 100 99 99 100 98 86 98 95 98 100 81 67 50 40 33 26 24 22 17 15 15 12 11 10 13 36 50 69 77 58 68 70 89 90
38 33 33 30 31 42 71 72 54 52 46 48 79 100 100 100 92 94 100 99 69 73 77 73 69 66 60 53 46 40 42 34 29 26 23 20 18 17 16 15 14 13 12 12 13 68 74 90 67 74 86 100 86 66
34 34 36 34 27 28 37 42 89 80 36 32 31 32 40 48 76 93 92 78 70 68 63 64 57 52 38 31 29 26 24 23 22 22 21 20 19 17 16 16 15 15 14 17 65 93 82 78 75 67 64 73 93 96
60 69 75 76 72 66 65 74 100 100 98 56 38 28 30 29 26 25 26 27 35 57 70 63 54 46 41 36 33 30 29 28 26 24 22 20 19 21 28 27 24 18 15 34 90 88 72 71 68 61 57 48 76 96
94 91 99 94 85 82 76 81 98 99 100 100 100 100 100 99 95 82 59 41 34 28 23 24 25 25 26 28 35 32 24 22 20 23 30 36 48 62 64 58 46 34 19 90 93 75 60 51 49 54 54 53 62 89
89 86 79 91 100 100 94 83 89 92 88 89 99 99 93 96 100 100 100 100 100 97 94 80 74 66 66 51 35 28 26 35 46 48 41 42 48 90 87 76 66 75 95 100 93 61 45 41 42 50 51 53 65 83
76 91 96 96 93 99 98 99 100 100 100 100 100 100 100 100 99 98 93 96 92 96 96 99 100 98 92 56 34 36 53 53 60 56 44 63 100 100 100 70 93 100 100 93 68 52 39 39 47 49 53 69 88 89
26 25 35 69 87 100 100 96 99 100 100 100 100 100 99 99 99 100 100 100 100 100 96 94 99 100 95 86 52 43 55 97 100 98 87 94 97 100 100 94 88 97 89 64 49 45 45 46 47 51 66 90 100 94
29 28 30 24 28 62 81 86 89 85 78 69 66 76 95 100 100 100 100 100 100 100 98 87 83 96 72 52 43 55 80 91 89 70 80 100 100 97 98 98 88 77 70 63 63 57 58 73 82 88 97 100 100 99
84 39 33 30 22 24 31 32 31 30 28 27 26 26 26 28 33 53 84 98 100 100 100 100 94 74 70 69 60 58 62 86 100 100 100 100 97 96 92 88 86 85 77 65 66 85 90 92 95 99 100 100 100 100
100 88 75 42 33 28 26 26 27 27 27 27 27 26 27 26 27 27 26 25 32 84 100 100 100 100 94 81 74 71 72 84 94 97 94 87 80 79 81 81 80 83 84 92 95 93 92 96 100 100 100 100 100 100
100 100 99 85 71 53 39 33 31 32 34 34 33 32 34 34 33 30 27 24 22 22 24 73 100 100 100 100 100 100 100 100 100 100 100 100 100 100 100 100 100 100 100 100 99 99 100 100 100 100 100 100 100 100
100 100 100 100 100 95 77 69 59 52 39 34 33 32 31 31 32 32 28 28 30 29 24 23 25 57 97 100 100 100 100 100 100 100 100 100 100 100 100 100 100 100 100 100 100 100 100 100 100 100 100 100 100 100
100 100 100 100 100 100 100 100 98 97 100 98 83 66 58 54 55 54 46 35 29 28 28 28 25 23 24 32 63 94 100 100 100 100 100 100 100 100 100 100 100 100 100 100 100 100 100 100 100 100 100 100 100 100
100 100 100 100 100 100 100 100 100 98 98 100 100 100 100 98 89 85 81 73 60 45 36 31 28 28 27 25 23 23 24 26 30 69 99 100 100 100 100 100 100 100 100 100 100 100 100 100 100 100 100 100 100 100
100 100 100 100 100 100 100 100 100 100 100 100 100 100 100 100 100 100 100 98 97 91 75 50 38 34 31 28 28 28 28 26 24 25 27 37 89 100 100 100 100 100 100 100 100 100 100 100 100 100 100 100 100 100
100 100 100 100 100 100 100 100 100 100 100 100 100 100 100 100 100 100 100 100 99 97 95 92 82 54 34 33 36 35 30 28 30 31 29 29 32 50 81 100 100 100 100 100 100 100 100 100 100 100 100 100 100 97
73 80 94 100 100 100 100 100 100 100 100 100 100 100 100 100 100 100 95 87 85 84 90 93 93 95 74 43 30 35 45 44 34 32 33 33 32 30 31 44 72 100 100 100 100 100 100 100 100 100 100 100 81 44
21 19 19 29 54 86 94 100 100 100 100 100 100 100 100 94 99 100 100 99 96 82 67 62 76 95 97 91 67 40 35 46 54 48 35 33 34 35 32 32 36 61 95 100 100 100 100 100 100 100 81 46 47 44

GFSWCAN_500_rhum_165.txt.gz
RH
88 65 80 74 64 88 100 100 100 100 100 100 100 100 95 70 57 52 56 52 56 52 66 83 88 83 74 90 94 100 94 58 46 64 98 100 90 88 78 70 79 93 100 98 100 100 83 84 71 79 76 88 88 91
80 75 81 75 77 100 100 100 97 100 100 100 100 100 100 100 100 98 92 86 73 67 78 78 84 87 94 92 100 100 100 91 99 93 99 100 100 100 85 69 73 73 91 100 100 90 100 92 92 95 78 63 72 78
100 80 78 91 85 92 100 100 100 100 100 100 100 100 100 100 100 100 100 100 91 90 90 82 98 89 81 78 77 70 93 87 63 64 52 60 87 85 78 50 65 66 96 82 90 95 98 99 100 76 71 72 76 82
86 76 79 89 69 96 100 100 100 100 100 100 100 100 100 100 100 100 98 100 97 89 96 99 72 72 68 55 57 61 74 72 62 61 82 74 28 37 67 62 51 68 79 96 91 99 100 76 84 71 86 82 80 76
99 96 100 73 80 92 93 87 87 100 100 100 100 100 100 100 100 100 100 100 96 91 98 97 86 92 57 65 90 94 100 100 98 94 91 65 40 25 37 74 52 100 68 100 99 100 96 74 52 55 66 76 83 73
66 98 100 83 90 100 100 90 74 100 100 100 100 100 100 100 100 100 92 87 71 80 70 62 57 71 70 65 96 95 100 100 100 95 90 59 43 55 58 76 100 96 100 72 73 78 69 43 39 41 46 56 64 80
77 86 100 100 100 86 81 75 85 93 100 100 100 100 100 100 99 92 76 86 91 84 72 61 48 51 64 93 59 97 100 99 100 95 99 92 44 34 49 82 100 100 99 72 79 52 37 34 33 48 46 63 57 90
100 92 88 100 100 91 85 70 85 100 100 100 100 100 100 99 92 81 62 66 100 100 100 94 94 98 100 84 58 96 100 99 91 80 67 53 34 31 75 100 100 93 78 62 56 71 70 80 96 72 53 38 50 86
77 70 86 94 83 91 95 84 94 95 96 91 89 94 100 100 100 72 78 80 99 100 83 100 100 97 57 66 100 99 99 98 91 60 57 61 43 68 100 99 100 86 87 82 61 40 32 17 18 19 15 15 22 24
49 49 83 96 100 100 100 100 100 95 100 100 94 100 100 100 98 100 100 100 100 68 58 73 74 59 51 100 100 99 100 100 100 100 92 72 77 83 98 100 100 100 94 66 35 56 26 19 10 10 11 11 10 10
48 55 55 77 89 97 95 100 98 97 100 99 96 94 100 100 88 92 84 92 91 86 92 76 64 43 59 99 100 100 100 100 100 100 94 68 61 84 97 100 100 100 98 62 45 26 20 11 13 14 12 10 11 15
32 38 47 47 51 88 91 92 100 100 98 99 100 100 100 100 100 100 100 94 74 63 42 42 39 52 92 99 100 100 100 100 100 99 100 100 95 89 100 94 99 100 82 45 41 25 10 13 15 14 9 16 32 39
42 35 41 47 40 42 44 46 46 46 50 54 45 54 81 99 100 99 95 91 69 66 58 32 81 98 100 100 100 100 100 100 100 98 100 100 93 97 97 100 100 100 73 48 22 9 8 10 10 19 55 52 68 47
45 41 34 36 52 66 71 69 65 52 59 66 76 81 63 65 68 59 38 58 53 30 47 100 100 100 100 100 100 100 100 100 100 100 100 100 98 98 95 81 71 61 26 11 10 10 8 9 24 82 81 72 70 78
33 38 42 46 51 65 85 100 100 100 96 98 100 98 97 96 99 100 72 88 37 41 99 100 97 100 100 100 100 100 100 100 100 98 96 89 67 54 44 37 33 28 21 15 12 9 8 22 81 96 85 67 96 92
34 33 32 31 38 45 63 80 56 51 64 99 100 100 100 100 100 100 95 90 89 100 100 100 100 100 100 100 100 100 100 98 86 65 44 36 27 23 20 17 15 15 13 13 12 10 11 22 86 100 78 78 87 97
41 38 35 36 33 26 31 82 90 84 38 58 99 100 100 100 100 100 100 98 99 100 100 100 100 93 94 72 71 66 65 62 44 32 26 22 18 17 17 18 18 18 17 16 15 11 13 67 100 97 79 66 66 86
39 39 47 68 79 72 71 100 100 100 77 33 34 55 95 100 100 95 92 83 85 89 87 74 58 52 38 38 32 28 24 24 23 23 23 24 25 24 22 22 22 21 19 18 17 16 29 96 100 84 70 62 57 49
60 64 73 74 69 71 76 95 98 100 100 100 82 53 36 34 55 70 58 58 58 59 63 62 50 48 42 37 37 39 38 35 36 34 31 26 23 24 24 32 52 43 44 40 27 18 74 100 86 59 45 44 52 55
100 100 99 96 99 100 97 85 84 97 94 89 94 98 96 92 90 78 60 42 31 27 30 40 41 50 59 62 55 47 47 48 39 30 31 30 26 28 49 56 52 76 77 73 77 75 100 99 62 43 42 44 47 52
87 96 100 100 94 85 89 100 95 85 88 86 99 100 100 95 92 94 97 100 100 100 100 100 98 85 64 67 62 55 48 39 38 35 45 48 38 46 71 100 100 89 100 100 100 100 100 72 51 41 34 36 43 52
35 34 52 90 99 100 96 94 98 100 97 95 94 95 96 87 92 99 100 100 100 95 86 80 78 83 94 100 100 100 83 43 42 57 83 74 94 94 94 100 100 100 100 100 100 85 65 49 43 40 39 49 71 92
96 60 29 31 31 39 59 82 94 100 99 100 100 100 100 100 100 100 100 100 92 90 89 87 87 96 91 89 75 61 43 46 62 93 99 100 100 100 100 100 100 100 85 70 66 63 53 51 54 57 76 90 99 100
100 100 96 49 30 34 31 31 56 90 95 88 72 53 45 35 37 56 92 97 93 98 100 100 100 100 99 87 61 45 42 67 86 98 93 92 100 100 100 95 91 86 80 74 74 73 67 64 77 89 96 99 100 100
100 100 100 96 72 54 37 32 37 45 44 37 34 31 29 28 28 27 26 28 30 39 73 100 100 100 100 99 92 79 60 54 61 71 95 100 100 100 99 93 89 83 79 73 78 87 92 95 97 98 100 100 100 100
100 100 100 100 100 92 64 38 36 36 36 36 34 32 32 31 31 32 29 26 25 24 24 25 27 87 100 100 100 100 97 94 88 86 85 91 98 100 100 98 92 93 96 99 100 100 99 97 100 100 100 100 100 100
100 100 100 100 100 100 98 93 66 44 42 40 40 40 40 39 39 38 31 32 31 30 29 26 23 23 32 82 100 100 100 100 100 100 100 100 100 100 100 100 100 100 100 100 100 99 96 100 100 100 100 100 100 100
100 100 100 100 100 100 100 100 100 99 95 90 76 48 39 36 33 32 31 32 31 30 28 27 28 26 24 24 29 59 98 100 100 100 100 100 100 100 100 100 100 100 100 100 100 97 99 100 100 100 100 100 100 100
100 100 100 100 100 100 100 100 100 100 100 100 100 100 97 98 98 86 81 82 81 72 54 39 28 26 27 27 25 24 24 28 34 51 75 96 100 100 100 100 100 100 100 100 100 100 100 100 100 100 100 100 100 100
100 100 100 100 100 100 100 100 100 100 100 100 100 99 99 100 100 99 95 94 96 97 96 90 77 52 38 30 28 27 28 28 27 25 24 25 26 43 83 100 100 100 100 100 100 100 100 100 100 100 100 100 100 100
88 91 97 100 100 100 100 100 100 100 100 100 100 100 100 100 100 99 98 96 96 96 99 100 100 100 89 69 45 35 34 32 30 30 31 31 29 27 28 41 77 100 100 100 100 100 100 100 100 100 100 100 100 100
22 38 64 85 92 98 100 100 100 100 100 100 100 100 100 100 100 100 100 100 100 100 100 100 100 100 100 98 87 58 38 34 38 37 32 31 32 33 32 32 42 65 95 100 100 100 100 100 100 100 100 100 100 100
23 20 19 18 18 37 74 98 100 100 100 100 100 100 98 100 100 100 100 100 100 100 89 88 94 99 100 100 100 96 82 61 38 35 42 44 38 33 33 34 34 33 39 56 84 100 100 100 100 100 100 100 100 94

GFSWCAN_500_rhum_171.txt.gz
RH
77 80 71 70 66 72 80 77 100 77 90 100 100 100 100 100 86 81 69 28 27 94 100 100 99 98 92 87 76 73 72 57 55 63 86 96 75 96 82 38 64 97 100 100 100 98 68 63 100 98 96 84 70 100
59 72 71 72 83 76 85 92 95 87 95 100 100 100 100 100 100 99 76 40 82 100 100 90 91 98 80 78 85 54 55 68 82 73 100 74 100 100 93 80 66 88 100 100 97 91 100 100 100 98 100 100 98 97
97 74 64 92 98 84 61 74 70 91 95 99 99 100 100 100 100 100 98 75 73 96 100 96 98 99 89 71 41 46 54 67 88 95 99 92 76 76 75 87 100 100 100 100 99 99 94 99 100 86 95 100 100 99
62 66 73 86 94 83 84 87 77 97 97 100 100 100 100 100 100 100 84 78 74 83 98 100 76 50 53 57 53 52 52 48 51 58 65 60 80 100 70 50 83 100 100 89 63 60 63 91 93 82 97 100 100 87
100 90 99 94 97 98 96 84 98 97 100 100 100 94 100 92 100 100 81 86 98 97 66 62 63 56 66 56 36 43 44 50 57 65 66 60 58 87 69 72 45 80 100 95 54 64 57 74 100 100 98 100 100 73
100 89 92 84 88 94 100 100 100 100 100 94 76 99 96 99 100 98 86 93 91 92 95 85 77 83 61 38 42 48 52 59 75 98 96 85 85 96 67 48 50 43 70 80 61 50 59 56 59 94 98 98 75 88
100 100 100 99 91 94 95 95 92 94 77 100 83 77 99 100 94 85 84 100 100 91 100 83 84 69 54 54 55 49 57 84 94 90 82 100 97 100 79 30 40 56 36 46 56 59 39 37 70 88 100 99 53 67
100 100 100 100 92 81 91 90 81 79 100 92 100 92 99 100 100 93 100 98 98 96 85 79 81 78 60 48 67 100 82 80 79 89 100 100 100 100 55 43 59 59 42 27 46 44 52 100 92 100 81 45 30 42
100 100 90 85 86 89 99 100 96 87 90 100 100 100 100 79 88 80 99 93 98 92 85 84 74 70 88 98 84 71 59 59 76 100 100 100 100 67 55 60 31 31 26 25 39 40 91 100 70 52 95 91 76 49
100 100 88 69 73 84 95 97 98 100 94 100 100 100 100 98 100 95 100 100 84 64 55 52 62 50 53 80 58 52 46 76 82 100 100 100 100 100 61 33 30 66 42 97 100 100 100 100 88 96 76 49 25 24
92 94 98 76 72 66 85 95 100 100 100 94 94 85 98 100 100 100 100 100 81 46 41 57 83 57 43 58 59 53 81 80 91 100 100 100 100 100 99 95 86 100 100 100 100 99 100 96 36 61 55 29 12 11
100 100 99 100 87 86 81 90 94 100 100 100 100 86 98 100 100 100 87 95 90 64 44 61 93 64 35 39 56 61 89 96 100 100 100 100 100 100 100 99 93 92 99 100 100 100 90 38 49 63 26 13 15 11
72 100 100 100 100 100 98 96 99 100 100 100 100 100 100 99 92 90 76 74 71 40 48 72 61 41 41 48 70 85 91 100 100 100 100 100 100 98 100 100 100 100 100 95 100 100 74 94 71 33 14 15 10 10
51 50 62 89 100 100 100 100 98 99 100 100 91 94 100 96 90 81 83 84 81 82 49 37 48 44 43 64 86 89 94 96 97 100 100 99 100 100 100 100 100 100 100 100 100 71 59 49 30 30 23 9 9 9
56 62 58 58 68 66 60 60 81 96 98 98 97 96 96 90 82 81 93 78 57 67 70 60 72 41 43 85 92 90 94 99 100 100 100 100 100 100 100 100 100 100 100 100 94 85 77 69 52 19 18 11 8 8
46 51 57 67 72 83 82 75 84 91 79 70 69 69 71 58 53 45 52 74 93 79 67 58 66 39 67 100 100 93 98 97 100 100 100 100 87 78 81 94 97 85 93 85 68 59 43 30 15 11 9 9 9 9
31 32 34 30 27 27 84 100 100 97 100 100 93 87 76 67 72 60 58 53 67 52 37 30 60 88 95 100 100 96 95 100 100 100 100 93 87 86 82 55 42 28 19 15 15 14 14 13 14 14 11 11 12 12
40 38 35 32 30 52 62 93 87 71 66 88 100 100 100 100 100 100 100 100 96 49 30 22 45 98 100 99 96 99 100 100 100 100 94 64 51 40 29 19 18 20 21 22 23 24 24 19 18 15 14 14 15 18
51 45 40 39 35 47 87 100 90 91 95 72 62 96 100 100 100 100 100 79 62 47 52 88 99 100 100 97 96 100 100 98 80 62 46 35 25 22 22 22 22 25 27 30 33 25 33 60 45 30 24 28 19 39
53 51 44 40 44 71 99 100 100 100 100 95 44 52 92 100 100 100 100 99 100 100 100 100 100 100 100 100 100 93 77 58 47 47 52 52 51 46 45 40 35 36 42 28 22 47 53 49 84 84 42 35 78 98
48 51 57 52 62 78 87 100 100 100 100 100 100 88 83 94 96 100 100 100 100 100 100 100 100 96 89 77 66 59 54 58 62 62 60 60 66 67 67 61 55 48 27 31 50 64 88 90 87 58 97 100 89 62
100 98 78 65 66 73 89 100 100 100 100 100 100 99 100 94 74 70 74 72 72 70 68 65 60 54 45 47 57 65 66 61 53 47 54 68 84 88 80 56 40 47 69 83 84 91 93 100 100 100 100 92 68 60
100 100 100 100 100 97 94 100 100 100 100 100 100 99 97 98 96 78 62 52 48 48 47 43 40 35 33 38 50 70 76 75 72 75 92 87 86 70 46 63 100 100 100 100 100 100 100 100 100 96 83 76 72 66
100 100 100 100 100 99 94 97 100 100 98 100 100 100 100 100 99 98 91 86 86 83 76 77 79 77 75 80 89 93 88 87 91 93 57 48 45 43 63 90 87 81 96 99 100 100 100 90 83 80 79 81 86 89
100 100 100 99 99 100 100 100 100 100 98 95 96 93 94 100 100 100 99 78 76 82 87 96 99 100 100 100 98 97 95 96 96 86 51 41 57 57 60 72 71 73 87 95 97 98 90 81 78 84 93 97 99 94
100 100 100 100 100 100 98 100 100 100 96 81 61 50 47 65 100 100 88 82 73 52 37 30 29 30 35 41 62 81 93 95 92 88 76 52 56 69 73 84 94 90 88 94 91 90 89 88 92 97 100 100 99 97
100 100 100 100 100 100 100 100 100 100 100 98 92 86 52 58 71 88 88 76 64 43 35 34 33 30 27 25 24 25 25 31 57 91 94 91 88 79 74 73 85 93 94 97 97 96 96 99 100 100 100 100 100 99
100 100 100 100 100 100 100 100 100 100 100 100 100 83 63 58 61 65 76 66 49 40 35 34 34 34 33 32 30 28 25 23 22 23 62 97 99 99 100 100 100 100 100 100 100 100 100 100 100 100 100 100 100 100
100 100 100 98 100 100 100 100 100 100 100 100 100 99 79 61 54 53 49 45 45 45 42 40 39 36 34 33 31 30 28 28 28 26 23 24 35 76 95 97 98 98 100 100 100 100 100 100 100 100 100 100 100 100
98 100 100 100 100 100 100 100 100 100 100 100 100 100 100 99 80 72 64 58 56 54 53 50 46 48 55 65 76 79 64 42 31 28 28 27 25 24 23 24 26 35 50 70 95 100 100 100 100 100 100 100 100 100
25 65 90 97 96 99 100 100 100 100 100 100 100 100 100 100 100 100 100 100 100 100 100 100 100 100 100 98 100 100 95 78 59 46 38 33 30 29 29 29 28 28 27 26 29 46 86 100 100 100 100 100 100 100
16 16 16 22 67 97 100 100 100 100 100 97 100 100 100 100 100 100 100 100 100 97 95 92 94 95 95 98 100 100 100 100 92 70 57 52 47 44 41 37 33 32 31 32 32 32 40 67 97 100 100 100 100 100
21 22 22 21 19 18 55 98 100 100 100 100 95 88 93 100 100 100 100 100 100 100 100 97 97 98 100 100 100 100 100 100 100 92 71 51 42 42 46 47 46 43 37 34 34 35 36 37 52 83 99 100 100 100

GFSWCAN_500_rhum_174.txt.gz
RH
37 57 60 61 69 71 67 89 94 89 69 82 98 100 100 100 97 95 97 89 42 18 34 50 87 94 100 82 80 70 66 67 76 72 45 39 34 39 52 75 96 87 47 46 98 100 97 100 100 96 74 70 94 98
50 68 74 69 72 64 69 73 75 77 84 100 95 100 100 100 100 100 100 98 63 33 27 32 37 60 83 96 95 92 80 73 59 49 47 44 35 48 66 60 75 98 100 99 100 100 100 100 100 100 98 100 100 86
42 49 49 56 67 74 95 83 92 99 94 100 100 100 100 100 100 100 100 100 97 61 55 48 81 100 78 84 74 72 69 54 36 41 52 57 52 70 68 67 64 59 99 100 98 88 98 100 98 100 97 95 100 100
98 96 89 89 100 100 100 98 99 100 100 99 100 100 100 100 100 100 100 100 100 80 91 100 90 88 82 69 70 62 46 44 42 38 38 40 44 57 55 62 48 48 57 98 91 68 84 99 100 96 91 99 100 100
92 90 100 98 92 84 72 81 91 92 90 97 100 100 100 100 90 100 100 99 100 94 96 100 99 89 84 81 59 55 37 36 33 34 49 58 63 86 86 66 31 45 45 64 84 87 68 87 100 96 81 94 96 94
100 100 96 96 98 98 92 74 88 83 70 97 100 100 98 100 100 93 94 86 90 90 96 95 95 95 67 58 63 40 39 39 44 52 60 76 100 100 95 69 53 63 49 49 63 80 79 80 100 93 98 94 100 98
100 99 91 95 98 100 100 97 91 85 86 100 100 85 97 100 84 72 76 85 72 81 83 75 64 74 87 71 39 40 40 43 55 72 58 68 100 100 95 70 54 85 76 52 48 58 63 90 76 76 68 96 100 100
98 99 90 86 92 91 100 80 100 99 99 84 62 76 100 76 99 100 100 100 100 98 96 88 85 91 79 54 49 45 45 66 54 52 76 100 85 100 100 97 89 82 56 42 36 43 60 66 72 72 74 94 100 83
92 94 86 83 88 78 75 83 92 62 42 81 100 93 71 97 100 100 100 100 100 97 82 83 95 98 78 58 42 50 60 53 39 59 89 88 100 100 100 75 48 25 21 27 26 33 46 52 92 100 100 100 71 70
80 65 74 91 98 83 73 62 82 80 66 64 78 92 100 100 100 100 100 90 95 86 87 87 98 78 61 62 63 66 53 48 50 98 92 93 100 100 88 27 34 22 24 29 27 29 31 39 100 85 85 81 75 57
82 71 65 66 78 100 95 97 90 65 86 100 75 69 100 100 100 99 77 65 56 61 73 82 65 72 57 47 46 43 50 76 98 90 93 99 100 100 100 62 27 48 42 32 37 54 58 99 100 91 74 58 42 38
84 91 80 68 75 89 97 87 84 93 98 95 100 100 100 100 99 92 55 60 62 81 56 62 74 74 59 34 40 48 71 96 100 91 99 100 100 100 95 88 100 100 100 79 94 98 100 83 93 54 55 52 44 18
86 100 100 99 70 76 86 96 98 100 100 100 100 100 100 99 95 68 56 48 41 50 80 88 67 60 54 42 51 72 96 100 97 100 98 100 100 100 100 93 100 100 100 100 100 100 100 87 43 37 55 58 17 13
100 100 89 99 81 94 77 95 100 100 100 100 100 100 97 100 86 89 86 71 68 75 81 63 76 59 51 46 59 79 84 100 100 94 100 100 100 100 100 100 100 100 100 100 97 91 62 52 60 59 62 37 27 18
53 79 96 99 100 100 100 95 100 100 99 98 100 93 85 80 84 88 66 64 63 66 66 73 57 49 58 49 68 98 100 100 99 100 100 100 100 100 100 100 100 100 100 100 66 55 56 53 53 58 49 40 25 25
50 53 60 69 66 65 74 88 90 91 99 97 89 88 84 84 93 80 73 67 54 42 38 46 51 40 57 51 74 98 100 100 100 100 100 100 100 100 100 100 100 100 100 99 95 87 74 64 55 48 30 22 12 9
58 67 72 62 69 76 93 100 92 91 79 64 64 69 76 69 60 58 46 38 41 58 49 38 46 46 48 63 97 100 99 100 100 100 100 96 86 93 100 96 59 40 30 24 19 16 16 16 15 17 16 13 10 9
40 36 34 30 29 42 75 79 99 92 90 97 98 78 85 97 83 83 100 81 57 67 82 51 38 47 70 75 93 100 100 100 100 100 100 100 99 81 61 43 34 27 27 18 19 21 22 19 14 13 12 13 12 11
41 40 39 39 39 36 57 93 83 94 100 97 61 99 100 98 98 100 100 100 99 72 55 52 36 31 75 70 92 96 100 98 99 100 100 99 81 61 51 39 31 25 22 24 27 28 23 18 22 38 47 63 47 30
55 51 53 52 48 41 44 97 89 100 100 98 71 55 99 100 100 100 100 92 87 73 51 36 31 37 100 100 100 96 85 92 97 84 51 44 46 46 47 50 50 51 50 43 39 34 24 43 49 57 80 64 37 44
73 66 59 59 50 43 52 100 100 100 100 100 100 71 81 100 100 100 100 100 100 100 100 100 100 100 100 100 93 100 96 85 63 57 71 80 66 58 51 48 49 55 58 51 43 51 45 58 51 87 54 64 94 100
97 78 66 62 55 48 58 85 100 100 100 100 100 100 92 93 91 99 100 100 92 94 98 99 99 97 95 98 98 90 78 70 72 60 47 39 36 49 66 74 77 74 46 77 100 90 72 76 87 96 99 99 100 99
99 100 98 72 54 56 63 80 95 100 100 98 100 100 100 100 99 93 93 91 92 92 90 87 81 78 76 69 60 52 42 35 34 44 57 60 57 65 53 49 65 50 84 100 100 100 98 91 89 91 92 91 89 85
100 100 100 100 100 89 72 86 100 100 100 100 100 95 92 99 98 86 70 74 77 71 65 58 52 47 44 41 40 44 48 53 59 75 76 75 76 69 42 40 43 86 100 85 89 91 92 92 94 91 84 83 84 88
100 100 100 99 96 96 100 100 100 100 100 100 100 97 100 100 100 100 80 72 78 85 87 85 81 82 86 84 87 88 85 84 83 84 80 79 81 59 49 52 51 75 80 76 84 92 94 95 92 89 84 80 93 100
100 100 100 100 100 100 100 100 100 100 100 100 100 100 100 100 100 94 80 83 85 86 87 90 93 95 93 90 84 80 79 78 84 88 90 92 89 81 55 54 56 59 66 77 94 95 87 90 89 90 95 98 100 100
100 100 100 100 100 100 100 100 100 100 100 100 100 100 100 100 98 96 93 85 80 85 91 89 80 64 51 40 32 29 26 25 25 26 31 47 80 99 92 79 62 65 74 73 69 82 93 98 97 94 94 96 98 100
98 100 100 100 100 100 100 100 100 100 100 100 100 100 100 96 79 75 72 75 82 89 95 95 91 88 72 52 38 30 28 28 27 25 23 22 22 33 92 100 100 99 99 99 100 100 100 100 100 100 100 100 100 100
55 86 100 100 100 100 100 100 100 100 100 100 100 100 100 100 100 100 100 96 87 72 70 85 91 78 56 37 35 37 38 36 34 31 29 28 26 24 25 42 88 99 100 100 100 100 100 100 100 100 100 100 100 100
16 34 65 86 96 100 100 100 100 100 100 100 100 100 100 100 100 100 100 87 75 67 63 61 58 49 42 41 39 36 35 36 42 56 44 31 28 28 28 26 25 26 29 35 48 65 85 98 100 100 100 100 100 100
11 13 16 40 81 96 100 100 100 100 100 100 100 100 100 100 100 100 100 100 100 91 78 67 59 56 58 73 85 87 89 91 97 97 91 68 47 34 29 29 30 30 29 29 28 27 27 29 46 88 100 100 100 100
12 14 16 17 17 22 65 100 100 100 100 100 100 100 98 99 100 100 100 100 100 100 100 100 99 98 98 98 98 95 91 95 96 98 99 96 85 64 48 41 38 35 33 32 31 31 32 33 34 37 69 100 100 100
12 14 17 22 24 23 21 21 62 99 100 100 100 100 100 100 100 100 100 100 100 100 100 100 100 99 98 95 93 95 97 98 100 100 100 100 99 81 66 53 47 46 47 43 38 34 34 34 35 38 44 66 90 100